Location: Clanezzo
(45.7500°N, 9.6000°E)
Time: 14:46:58
(UTC+00:00)

AO-73 - Visible Passes

Search period start: 26 June 2022 00:00
Search period end: 06 July 2022 00:00
Orbit: 578 x 658 km, 97.6° (Epoch: 25 June)

Date Brightness Start Highest point End Pass type
(mag) Time Alt. Az. Time Alt. Az. Time Alt. Az.
26 Jun ? 02:35:47 10° NE 02:39:21 23° E 02:42:55 10° SSE visible
27 Jun ? 02:52:10 10° NNE 02:56:13 33° E 03:00:18 10° SSE visible
30 Jun ? 02:08:10 10° ENE 02:10:01 12° E 02:11:52 10° ESE visible
01 Jul ? 02:23:51 10° NE 02:26:57 18° E 02:30:04 10° SE visible
02 Jul ? 02:40:03 10° NE 02:43:51 26° E 02:47:39 10° SSE visible
03 Jul ? 02:56:29 10° NNE 03:00:42 38° E 03:04:55 10° SSE visible
